Theta_e
320 317 316 309 303 301 296 297 299 301 308 314 316 318 316 320 317 314 341 346 348 348 351 352 349 350 350 351 351 352 353 353 353 353 353 353 353 353 353 353 353 353 352 351 350 349 348 348 347
318 314 310 305 301 296 297 298 300 304 312 312 313 314 314 313 322 331 337 346 348 348 350 352 348 349 350 350 350 352 353 352 352 352 352 353 353 353 353 353 352 353 352 350 350 349 348 347 345
316 309 309 302 298 297 298 300 301 306 309 309 311 314 313 310 317 337 344 346 346 346 349 347 345 347 349 350 350 351 351 350 350 350 352 352 352 352 352 351 351 352 352 351 350 348 346 346 343
313 311 307 301 297 300 299 303 301 305 309 311 312 308 312 320 326 331 334 343 341 341 345 343 342 345 349 350 350 350 349 348 348 349 351 351 350 351 351 350 350 352 351 350 349 348 345 343 342
308 307 301 298 298 300 302 303 304 306 307 307 309 305 306 316 320 321 324 326 329 330 334 339 339 342 345 347 348 348 347 347 347 348 349 350 351 350 349 348 349 350 351 352 349 347 344 342 341
307 305 299 297 298 300 302 304 306 306 307 307 306 305 308 314 314 315 318 318 319 321 324 328 332 339 340 342 343 343 344 345 345 346 347 348 349 348 348 347 347 348 348 348 347 344 343 341 340
304 302 297 297 298 299 301 305 303 303 305 304 307 304 309 313 310 312 313 313 313 315 316 320 325 331 335 336 338 338 340 341 342 343 343 343 343 344 345 346 346 346 346 347 345 343 341 340 340
304 302 296 298 298 298 302 303 303 303 302 307 309 302 305 310 311 311 311 310 310 310 311 312 316 320 326 331 330 334 335 338 339 341 340 339 337 341 343 343 344 344 345 345 344 341 339 338 337
304 301 297 298 297 300 303 302 303 306 306 305 307 307 308 309 309 308 307 306 307 307 308 309 311 313 318 321 323 327 327 329 335 338 339 340 343 342 347 342 341 343 343 343 343 342 338 336 335
303 300 299 302 301 300 302 302 302 303 303 304 304 306 307 306 305 304 303 302 303 303 304 305 308 309 311 312 316 319 321 326 326 326 327 336 340 341 340 341 339 340 341 341 341 341 338 336 341
299 300 301 302 303 302 301 301 301 301 299 303 302 302 303 303 302 302 301 301 301 302 303 303 305 307 307 309 310 311 313 317 320 322 325 326 327 326 335 340 340 346 343 347 343 344 345 345 343
298 299 300 301 300 300 301 301 299 300 300 305 304 302 301 300 300 300 299 300 300 301 301 302 303 304 305 306 306 308 309 311 313 317 317 314 318 322 322 323 328 337 342 343 344 343 341 343 344
297 298 299 300 299 300 300 297 299 298 302 303 302 301 299 299 299 299 300 300 300 299 300 301 301 302 303 304 305 306 306 308 311 312 311 312 314 315 317 320 323 325 328 336 339 341 340 338 343
298 297 298 299 300 299 298 299 301 299 302 300 299 298 298 298 298 298 298 298 298 298 299 300 301 301 301 302 304 304 305 306 307 308 307 309 310 310 311 313 317 320 320 322 322 335 338 337 338
297 295 296 297 298 299 299 294 296 300 300 298 297 297 297 297 297 296 297 296 297 297 298 298 299 299 300 300 301 303 303 304 304 305 305 307 307 306 308 310 312 313 315 319 320 322 333 336 335
295 294 293 296 296 297 299 293 296 299 298 296 296 296 296 296 296 296 297 296 296 297 296 297 298 298 299 299 300 301 301 302 302 303 303 304 304 304 305 308 308 309 313 317 321 320 320 322 334
292 291 290 293 295 295 295 291 297 299 297 295 295 295 295 295 295 296 296 296 295 296 295 296 297 297 297 298 299 300 300 300 300 301 301 302 302 302 303 305 305 308 308 310 313 315 316 317 320
289 289 290 290 292 293 291 290 296 297 296 295 295 295 294 294 294 295 295 295 295 295 295 295 295 296 296 297 298 299 299 299 300 299 299 301 300 301 302 302 303 305 304 304 307 308 310 311 316
291 289 288 290 291 291 290 291 294 295 295 293 294 294 294 294 295 295 295 295 295 295 294 294 294 294 294 294 294 295 295 297 298 298 299 299 299 300 299 298 298 300 301 301 302 302 302 306 312
291 289 289 290 290 291 288 290 293 293 294 295 294 294 294 294 295 295 295 294 293 293 293 293 292 293 293 293 293 294 294 296 296 297 297 298 298 298 298 296 297 298 297 298 299 300 299 300 306
289 289 287 288 289 289 288 286 289 293 294 294 295 296 295 295 295 295 294 293 293 292 292 291 292 292 293 293 293 293 294 294 294 294 295 297 297 297 297 296 295 295 295 295 296 297 299 297 299
287 290 289 288 287 285 287 285 286 290 291 292 293 294 295 295 295 295 294 293 292 292 292 292 291 292 292 292 291 291 290 289 291 292 294 295 296 296 297 295 294 293 294 294 295 297 298 299 296
290 290 289 287 285 284 284 284 285 289 287 290 292 293 294 295 295 295 294 293 292 292 292 292 292 292 292 292 291 290 290 290 291 292 291 291 293 295 294 294 293 292 293 294 295 295 296 298 298
289 288 286 285 284 281 285 285 286 286 289 290 292 293 294 294 295 295 295 293 292 292 292 292 291 291 291 291 291 290 289 289 289 290 290 290 291 292 293 292 292 292 292 293 294 295 296 298 298
288 287 282 280 279 280 282 281 287 289 291 293 291 292 294 295 295 294 294 292 291 290 291 291 291 290 291 291 290 290 289 289 289 289 290 290 290 291 291 292 291 291 293 293 294 295 293 294 294
286 288 283 277 277 281 282 280 285 291 292 294 294 294 294 294 294 294 294 291 290 290 290 291 290 290 290 290 289 289 289 289 289 289 290 290 289 290 290 290 291 291 292 293 293 292 292 293 292
285 283 289 282 280 279 282 284 288 290 290 291 291 292 293 294 293 294 293 291 291 291 290 290 290 289 289 289 289 288 288 288 288 289 289 289 289 290 290 290 289 290 291 293 290 289 288 289 290
288 289 282 283 277 276 280 280 285 286 288 289 290 291 293 293 293 293 292 291 291 291 290 289 289 288 289 288 288 287 287 288 288 288 288 288 289 289 289 289 289 289 290 290 289 287 288 288 287
284 284 284 285 283 279 278 283 289 289 290 290 291 292 293 293 293 293 291 291 291 290 290 289 288 288 288 287 287 286 287 287 288 288 288 288 288 288 289 288 288 287 288 288 287 287 286 285 286
287 286 287 283 279 280 281 283 291 291 293 293 293 293 294 294 293 293 291 290 289 288 288 288 287 287 286 286 286 285 286 286 286 287 287 288 287 288 288 287 287 286 286 287 285 285 285 285 284
Wind_Speed
4 3 1 1 1 3 4 4 3 3 4 4 5 14 17 8 7 7 7 14 10 11 8 8 9 8 8 7 7 7 7 6 7 7 8 8 9 9 9 9 8 8 8 8 8 7 8 8 8
3 1 1 2 4 5 4 2 6 4 7 4 9 8 12 11 9 6 8 14 12 11 9 9 7 6 6 5 6 7 7 6 5 5 6 6 7 7 8 8 8 7 8 8 8 7 7 8 8
1 3 2 4 3 3 4 2 3 3 0 1 5 7 6 9 10 5 10 8 12 13 12 14 13 10 9 8 7 6 5 6 5 4 4 4 5 6 6 6 6 6 7 7 6 6 6 7 7
2 2 3 5 7 3 1 4 3 2 5 9 10 11 10 11 7 12 13 13 15 15 14 16 13 14 13 10 9 9 7 5 3 3 1 0 1 3 4 5 5 4 5 6 5 5 5 6 7
3 2 4 4 2 2 3 4 3 4 5 3 2 7 6 7 9 12 14 15 15 15 14 14 15 13 13 14 14 11 9 8 7 5 3 1 2 2 2 3 4 4 3 5 4 4 5 6 7
3 1 4 4 1 2 2 5 3 11 11 8 8 7 5 7 11 11 13 16 15 15 14 14 16 17 14 15 12 10 10 9 8 8 8 6 4 4 4 4 4 3 3 3 4 5 6 6 7
4 3 4 5 3 2 3 5 4 4 5 8 3 5 5 11 9 10 14 16 17 17 16 15 14 15 15 16 13 11 9 8 7 7 7 8 7 6 6 5 6 6 5 6 6 6 6 7 7
3 3 5 2 5 4 1 2 2 6 6 4 8 6 5 4 6 9 13 16 17 17 16 15 14 13 12 12 18 16 16 12 10 9 6 6 8 6 7 5 7 7 7 7 8 7 7 7 8
2 2 4 5 6 3 1 4 4 5 8 8 7 6 7 7 8 10 13 18 15 16 17 15 16 15 13 12 13 14 16 17 15 12 10 7 6 8 12 7 6 8 8 8 8 9 7 7 8
2 1 6 4 2 1 2 2 7 4 5 8 12 12 12 12 13 16 16 15 17 18 17 15 15 15 12 10 12 12 12 11 11 12 13 8 7 5 7 10 11 11 9 10 9 9 8 8 8
2 2 3 1 2 2 2 2 5 7 5 2 12 12 11 14 15 16 16 15 13 13 12 15 14 13 12 10 8 6 7 7 8 13 13 11 9 9 7 5 6 8 9 8 7 8 8 10 8
1 1 1 2 3 2 3 5 7 9 5 12 14 12 13 15 14 13 14 13 13 14 15 15 15 13 13 8 8 8 8 8 8 10 14 10 7 8 7 5 8 7 7 11 9 7 9 12 12
1 1 2 5 5 2 6 6 10 10 12 14 15 15 15 13 12 12 12 12 12 13 13 14 15 14 13 12 9 9 9 8 9 10 13 11 10 9 9 8 7 7 9 8 9 10 10 10 13
1 2 4 5 4 3 11 8 3 6 11 13 14 14 13 13 11 11 13 13 13 13 14 13 14 13 11 10 10 8 8 8 9 9 12 13 10 10 9 9 9 8 8 8 7 11 9 8 11
0 3 4 6 3 3 9 5 5 16 13 13 13 13 13 13 13 13 12 13 12 11 12 13 13 13 12 11 9 7 8 8 9 8 12 13 12 12 12 9 9 10 10 10 8 9 11 9 8
1 1 2 3 3 1 10 4 9 11 14 13 12 11 11 11 12 11 11 11 11 11 13 12 11 14 13 11 8 7 8 7 8 8 9 13 13 14 11 9 10 12 10 10 9 8 9 10 9
3 4 4 2 2 3 4 4 11 9 11 12 11 10 10 11 10 9 9 9 10 11 11 13 13 15 14 11 8 7 7 7 7 8 8 12 12 13 11 9 10 12 10 10 10 11 8 10 10
5 4 3 3 1 4 5 6 12 10 11 11 11 10 10 10 8 7 7 7 8 9 10 11 10 13 13 9 8 7 6 8 8 8 9 12 11 13 11 10 12 11 10 11 11 13 12 11 11
4 2 3 2 1 1 3 10 12 9 11 12 11 11 10 9 7 6 6 6 7 9 11 13 15 15 13 12 11 9 10 10 9 9 13 13 13 13 13 10 11 11 10 12 12 12 14 12 13
3 3 4 2 2 2 6 6 6 9 11 13 13 11 11 9 8 6 5 6 8 10 11 12 12 12 11 8 8 5 8 6 8 9 10 11 12 13 11 12 11 13 11 13 12 11 11 10 9
4 6 4 3 1 3 7 5 9 9 9 11 11 11 10 11 10 7 5 6 6 8 8 9 10 11 11 11 8 7 4 7 7 9 8 11 11 12 11 13 11 12 11 10 11 13 14 11 11
6 9 5 5 3 4 3 6 7 10 13 14 13 12 11 9 7 5 4 4 5 6 6 8 9 10 10 11 10 12 8 10 10 9 10 12 13 13 13 13 13 12 9 11 10 11 12 11 10
5 4 5 3 3 1 3 6 4 8 13 18 16 13 11 10 8 7 5 3 4 6 7 7 9 10 10 11 11 9 9 7 7 8 11 11 13 13 13 14 14 12 9 11 12 13 13 11 11
11 7 7 4 1 7 11 11 5 8 10 14 16 15 14 12 9 7 5 3 3 4 5 6 8 8 9 9 11 11 11 11 9 10 9 8 8 9 12 14 13 13 11 11 11 13 15 12 11
4 7 2 3 5 8 2 7 8 6 9 14 22 19 15 12 10 9 7 5 3 3 5 5 7 9 9 10 11 12 12 11 11 11 10 13 10 10 11 14 13 12 13 13 13 11 12 13 13
9 8 6 8 6 2 3 8 2 1 2 7 15 16 13 12 10 10 8 6 4 3 4 6 8 10 10 10 12 11 12 8 8 10 10 9 9 11 14 13 13 15 14 14 9 9 11 13 12
6 8 3 6 2 2 4 4 4 4 4 9 15 15 15 13 12 11 9 6 5 3 4 5 7 8 8 9 11 11 11 11 10 12 11 9 11 11 13 13 13 14 15 12 13 10 14 14 13
5 12 4 1 6 8 4 6 8 9 12 11 16 18 16 14 12 11 9 7 5 3 2 3 5 7 8 9 10 10 12 12 11 11 11 12 12 13 14 14 15 15 13 13 13 12 15 17 13
5 6 1 3 3 4 3 7 5 9 15 19 19 18 17 16 13 12 9 6 5 2 0 2 5 6 7 9 11 12 11 12 11 10 12 13 13 13 14 15 15 15 16 15 15 14 18 19 18
3 6 6 5 6 1 2 10 2 4 14 17 19 18 15 14 12 11 9 6 4 1 0 2 4 5 7 9 11 11 11 12 12 12 13 13 14 13 14 15 15 15 16 15 15 16 18 19 19
Wind_Direction
342 4 325 37 150 57 62 57 288 346 84 28 70 83 87 69 45 74 61 17 48 80 82 82 82 90 99 105 110 107 99 103 115 122 125 131 132 136 135 136 136 140 135 132 125 121 111 115 117
339 257 74 84 68 91 73 318 26 62 117 145 72 85 66 69 22 68 32 21 45 54 50 50 53 75 88 105 114 113 108 107 107 114 128 135 138 140 144 141 143 141 139 137 137 133 127 127 130
178 26 14 63 93 99 123 155 334 60 79 72 96 46 42 356 7 39 20 43 56 48 47 39 29 38 38 34 34 54 86 105 109 115 123 140 148 153 151 147 152 150 149 147 148 140 129 135 148
17 47 81 60 84 62 256 325 211 161 81 61 103 83 89 47 2 13 23 38 53 45 47 44 42 39 37 40 40 36 27 40 57 77 72 106 180 167 159 161 168 171 162 156 154 146 147 154 169
37 53 67 94 50 301 297 322 213 138 85 109 112 105 78 20 19 32 45 49 50 46 36 37 35 43 52 48 42 35 30 19 4 357 345 305 268 270 232 199 188 186 198 169 162 161 175 178 192
73 62 96 117 106 334 334 355 60 87 97 84 82 90 78 25 29 35 52 56 50 47 39 33 30 32 38 39 35 48 45 31 15 359 342 319 300 278 268 273 263 226 218 204 207 198 199 194 207
88 73 138 150 114 60 9 341 36 59 83 36 15 78 95 46 38 49 60 59 52 44 38 30 26 23 26 31 34 31 32 45 35 16 353 334 320 303 288 271 266 271 261 241 235 227 221 212 213
94 90 133 195 161 120 34 90 130 54 66 4 348 106 112 45 34 61 60 59 52 42 37 28 27 26 24 24 25 25 26 20 19 18 11 356 324 296 272 278 260 272 264 254 249 251 235 230 220
134 89 154 177 171 148 160 124 39 66 85 54 31 65 89 65 55 64 54 48 42 38 34 26 23 21 22 30 21 21 29 25 17 13 4 343 342 322 312 296 259 261 262 250 242 255 248 233 236
82 167 186 182 199 163 87 77 132 111 100 75 87 82 74 67 59 59 51 46 37 31 27 24 24 22 20 26 23 22 21 24 23 16 11 8 347 323 316 309 298 277 245 242 240 243 247 239 246
131 183 174 207 253 231 131 98 56 125 81 140 137 110 80 72 61 59 57 50 41 36 32 27 23 22 22 28 26 29 28 21 19 20 17 7 9 3 357 324 318 309 291 265 241 241 244 244 247
187 182 211 323 347 176 179 100 70 39 80 107 111 104 91 74 66 62 58 47 36 32 27 24 24 23 26 23 33 29 31 26 25 21 20 9 6 4 359 344 344 323 304 295 271 248 246 253 244
196 360 305 301 305 229 71 46 111 99 112 110 106 93 87 84 79 66 63 54 45 37 26 22 20 21 18 23 21 31 29 29 26 29 22 14 7 2 353 347 340 336 343 329 298 269 257 253 255
187 259 267 284 258 209 130 152 93 152 132 109 100 94 89 81 72 67 53 45 37 30 23 17 21 18 15 22 21 26 26 25 27 28 21 17 11 1 352 344 346 342 343 324 321 305 262 249 252
124 292 296 224 232 246 128 127 39 138 137 116 101 93 79 70 61 55 49 46 31 28 21 18 15 13 14 14 18 22 25 23 27 23 21 17 15 0 349 346 348 344 333 325 326 321 312 247 251
22 87 269 137 176 294 195 202 143 147 139 124 118 109 99 82 71 60 50 45 33 26 22 20 15 13 11 13 14 17 23 23 24 20 15 13 10 3 350 347 349 341 333 333 331 332 322 321 261
7 249 211 278 101 133 212 134 161 162 152 140 134 124 108 95 78 66 57 48 37 30 23 21 17 14 6 5 10 19 29 24 22 15 12 11 10 1 352 349 346 342 341 340 337 329 325 312 305
202 221 244 242 44 138 114 121 157 173 165 153 147 139 125 115 105 93 73 58 46 35 31 27 25 17 9 7 5 15 22 18 17 11 9 6 5 359 353 351 348 347 340 338 334 331 323 315 306
135 189 234 251 45 170 149 150 171 160 168 169 165 156 142 130 126 105 79 58 49 41 34 28 23 18 15 12 2 4 5 358 2 3 1 360 357 359 354 357 347 344 337 334 330 327 325 326 323
195 209 228 279 341 163 167 154 173 185 190 187 176 169 161 153 154 136 102 66 47 40 33 30 27 23 22 17 11 353 333 342 341 349 349 352 353 356 353 351 342 342 334 331 327 326 317 315 327
210 211 194 219 334 98 154 179 189 199 196 194 193 182 178 172 159 149 108 63 48 43 35 33 29 27 26 16 10 6 4 344 350 344 344 347 352 352 353 350 341 335 332 325 321 320 313 311 313
216 198 181 165 166 246 327 275 199 195 196 202 194 193 187 180 169 150 127 90 56 46 44 39 33 30 27 20 14 13 5 352 345 338 340 340 348 347 350 346 340 333 324 322 317 315 306 301 300
222 127 137 102 119 322 187 262 117 169 212 208 197 196 191 187 181 168 156 112 66 41 34 30 26 29 22 18 15 6 359 350 337 335 336 336 335 337 339 339 333 331 323 313 311 305 296 289 290
147 91 60 64 105 251 205 210 184 184 220 191 193 199 194 189 184 174 165 153 73 44 33 32 21 23 14 11 9 5 355 344 336 340 336 334 327 330 333 333 330 328 322 314 308 299 289 298 307
180 137 189 219 199 246 43 217 276 201 212 195 189 193 190 185 183 183 183 182 159 70 43 31 19 18 11 7 3 360 353 339 332 335 333 332 335 333 333 335 327 326 318 313 303 316 322 311 300
195 191 182 208 210 250 135 233 239 200 232 197 191 182 178 184 188 185 183 178 139 89 46 26 15 8 6 0 357 352 347 339 332 333 328 323 319 325 327 326 325 325 319 314 340 325 316 312 304
177 213 152 106 62 266 214 244 207 161 154 163 174 173 182 185 185 182 173 170 164 99 44 22 6 0 3 357 349 345 342 341 337 334 328 325 325 325 330 326 327 326 325 319 332 322 314 316 306
186 145 142 166 199 228 216 262 244 200 195 180 181 184 186 184 182 177 174 171 145 111 52 23 4 1 358 351 348 345 342 344 338 332 327 329 335 332 333 331 327 328 329 329 330 321 318 319 316
151 183 92 135 181 220 279 258 216 212 186 189 192 191 187 186 182 175 171 156 135 116 169 24 10 1 359 352 349 344 344 340 332 328 335 338 335 336 337 337 331 332 331 333 320 326 323 323 320
178 180 170 174 189 242 238 259 155 210 195 193 195 194 189 183 174 169 158 150 143 165 123 39 10 12 2 351 344 345 342 336 333 336 338 339 336 339 341 339 336 334 335 333 331 330 328 325 325